Elizabethtown, NC

7:01 AM EDT on May 26, 2017 (GMT -0400)
Elizabethtown

Weather History for KEYF - March, 2014

Change the Weather History Date:

Sunday, March 23, 2014

  Actual Average (KILM) Record (KILM)
Temperature  
Mean Temperature 56 °F -  
Max Temperature 68 °F 65 °F 94 °F (1907)
Min Temperature 43 °F 42 °F 24 °F (1888)
Degree Days  
Heating Degree Days 10    
Growing Degree Days 6 (Base 50)    
Moisture  
Dew Point 51 °F    
Average Humidity 85    
Maximum Humidity 100    
Minimum Humidity 54    
Precipitation  
Precipitation 0.00 in - - ()
Sea Level Pressure  
Sea Level Pressure 29.97 in    
Wind  
Wind Speed 3 mph (NNW)    
Max Wind Speed 12 mph    
Max Gust Speed 18 mph    
Visibility 7 miles    
Events Fog , Rain    
Averages and records for this station are not official NWS values.
T = Trace of Precipitation, MM = Missing Value Source: NWS Daily Summary

Daily Weather History Graph

Daily Weather History Graph

Search for Another Location

Airport or City:

Trip Planner

Search our weather history database for the weather conditions in past years. The results will help you decide how hot, cold, wet, or windy it might be!

Date:

Astronomy

Mar. 23, 2014 Rise Set
Actual Time 7:12 AM EDT 7:27 PM EDT
Civil Twilight 6:47 AM EDT 7:52 PM EDT
Nautical Twilight 6:18 AM EDT 8:22 PM EDT
Astronomical Twilight 5:48 AM EDT 8:51 PM EDT
Moon 1:30 AM EDT (3/23) 12:04 PM EDT (3/23)
Length of Visible Light 13h 04m
Length of Day
12h 14m
Waning Gibbous, 55% of the Moon is Illuminated
Mar 23
Waning Gibbous
Mar 23
Last Quarter
Mar 30
New
Apr 7
First Quarter
Apr 15
Full

Hourly Weather History & Observations

Time (EDT) Temp. Windchill Dew Point Humidity Pressure Visibility Wind Dir Wind Speed Gust Speed Precip Events Conditions
12:15 AM 59.0 °F - 57.6 °F 95% 30.00 in 10.0 mi Calm Calm - N/A   Clear
12:35 AM 58.1 °F - 57.2 °F 97% 29.99 in 10.0 mi Calm Calm - N/A   Clear
12:55 AM 56.7 °F - 55.6 °F 96% 29.99 in 10.0 mi South 3.5 mph - N/A   Clear
1:15 AM 58.3 °F - 57.6 °F 97% 29.98 in 10.0 mi SSW 3.5 mph - N/A   Clear
1:35 AM 57.6 °F - 57.0 °F 98% 29.97 in 7.0 mi SSW 4.6 mph - N/A   Clear
1:55 AM 56.5 °F - 55.8 °F 97% 29.97 in 7.0 mi SSW 3.5 mph - N/A   Clear
2:15 AM 57.2 °F - 56.7 °F 98% 29.97 in 7.0 mi SSW 3.5 mph - N/A   Clear
2:35 AM 57.0 °F - 56.8 °F 99% 29.96 in 5.0 mi South 3.5 mph - N/A   Clear
2:55 AM 57.0 °F - 57.0 °F 100% 29.96 in 5.0 mi Calm Calm - N/A   Clear
3:15 AM 56.5 °F - 56.5 °F 100% 29.95 in 2.5 mi Calm Calm - N/A   Clear
3:35 AM 57.0 °F - 57.0 °F 100% 29.95 in 1.2 mi Calm Calm - N/A   Mist
3:55 AM 54.5 °F - 54.5 °F 100% 29.95 in 0.5 mi Calm Calm - N/A Fog Fog
4:15 AM 55.0 °F - 55.0 °F 100% 29.94 in 0.2 mi Calm Calm - N/A Fog Fog
4:35 AM 55.8 °F - 55.8 °F 100% 29.94 in 0.2 mi Calm Calm - N/A Fog Fog
4:55 AM 57.2 °F - 57.2 °F 100% 29.94 in 0.2 mi WSW 4.6 mph - N/A Fog Fog
5:15 AM 56.8 °F - 56.8 °F 100% 29.93 in 0.2 mi WSW 3.5 mph - N/A Fog Fog
5:35 AM 56.3 °F - 56.3 °F 100% 29.93 in 0.2 mi West 3.5 mph - N/A Fog Fog
5:55 AM 56.3 °F - 56.3 °F 100% 29.93 in 0.2 mi Calm Calm - N/A Fog Fog
6:15 AM 56.5 °F - 56.5 °F 100% 29.93 in 0.2 mi Calm Calm - N/A Fog Fog
6:35 AM 56.5 °F - 56.5 °F 100% 29.93 in 0.2 mi NNW 3.5 mph - N/A Fog Fog
6:55 AM 57.2 °F - 57.2 °F 100% 29.93 in 0.2 mi Calm Calm - N/A Fog Fog
7:15 AM 57.4 °F - 57.4 °F 100% 29.93 in 0.2 mi Calm Calm - N/A Fog Fog
7:35 AM 57.6 °F - 57.6 °F 100% 29.94 in 0.2 mi West 3.5 mph - N/A Fog Fog
7:55 AM 58.1 °F - 58.1 °F 100% 29.94 in 0.2 mi WNW 4.6 mph - N/A Fog Fog
8:15 AM 58.5 °F - 58.5 °F 100% 29.95 in 0.2 mi Calm Calm - N/A Fog Fog
8:35 AM 59.0 °F - 59.0 °F 100% 29.95 in 1.8 mi NW 6.9 mph - N/A   Overcast
8:55 AM 59.2 °F - 59.2 °F 100% 29.95 in 2.0 mi Calm Calm - N/A   Overcast
9:15 AM 59.2 °F - 59.2 °F 100% 29.94 in 3.0 mi NW 3.5 mph - N/A   Mostly Cloudy
9:35 AM 59.9 °F - 59.9 °F 100% 29.95 in 3.0 mi Calm Calm - N/A   Mostly Cloudy
9:55 AM 60.1 °F - 60.1 °F 100% 29.95 in 4.0 mi NW 3.5 mph - N/A   Scattered Clouds
10:15 AM 60.3 °F - 60.3 °F 100% 29.94 in 7.0 mi Calm Calm - N/A   Scattered Clouds
10:35 AM 60.6 °F - 60.6 °F 100% 29.94 in 10.0 mi Calm Calm - N/A   Clear
10:55 AM 62.8 °F - 60.3 °F 91% 29.94 in 10.0 mi Calm Calm - N/A   Clear
11:15 AM 64.2 °F - 59.2 °F 84% 29.94 in 10.0 mi Calm Calm - N/A   Clear
11:35 AM 66.0 °F - 56.3 °F 71% 29.94 in 10.0 mi Calm Calm - N/A   Clear
11:55 AM 66.7 °F - 55.2 °F 66% 29.94 in 10.0 mi Calm Calm - N/A   Clear
12:15 PM 67.1 °F - 55.4 °F 66% 29.94 in 10.0 mi NNE 4.6 mph - N/A   Scattered Clouds
12:35 PM 66.9 °F - 54.5 °F 64% 29.93 in 10.0 mi North 3.5 mph - N/A   Mostly Cloudy
12:55 PM 67.6 °F - 54.9 °F 64% 29.93 in 10.0 mi Calm Calm - N/A   Scattered Clouds
1:15 PM 68.0 °F - 55.0 °F 63% 29.92 in 10.0 mi NNE 4.6 mph - N/A   Clear
1:35 PM 67.1 °F - 54.5 °F 64% 29.91 in 10.0 mi Calm Calm - N/A   Scattered Clouds
1:55 PM 67.3 °F - 54.7 °F 64% 29.91 in 10.0 mi North 5.8 mph - N/A   Mostly Cloudy
2:15 PM 66.2 °F - 54.0 °F 65% 29.92 in 10.0 mi North 6.9 mph - N/A   Mostly Cloudy
2:35 PM 62.8 °F - 48.7 °F 60% 29.93 in 10.0 mi NNW 11.5 mph 18.4 mph N/A   Overcast
2:55 PM 60.8 °F - 44.2 °F 54% 29.93 in 10.0 mi North 9.2 mph 16.1 mph N/A   Overcast
3:15 PM 58.6 °F - 42.1 °F 54% 29.92 in 10.0 mi North 8.1 mph - N/A   Mostly Cloudy
3:35 PM 57.4 °F - 41.7 °F 56% 29.93 in 10.0 mi North 6.9 mph - N/A Rain Rain
3:55 PM 55.8 °F - 41.9 °F 60% 29.93 in 10.0 mi North 6.9 mph - N/A Rain Rain
4:15 PM 54.9 °F - 41.5 °F 61% 29.93 in 10.0 mi North 8.1 mph - N/A Rain Light Rain
4:35 PM 54.0 °F - 41.0 °F 62% 29.93 in 10.0 mi North 4.6 mph - N/A   Overcast
4:55 PM 52.7 °F - 41.7 °F 66% 29.94 in 10.0 mi North 8.1 mph - N/A   Overcast
5:15 PM 52.2 °F - 43.2 °F 71% 29.94 in 10.0 mi North 5.8 mph - N/A   Light Drizzle
5:35 PM 50.4 °F - 41.9 °F 73% 29.94 in 10.0 mi NNE 5.8 mph - N/A   Overcast
5:55 PM 49.5 °F - 41.4 °F 74% 29.96 in 10.0 mi North 5.8 mph - N/A   Overcast
6:15 PM 48.6 °F - 41.4 °F 76% 29.98 in 10.0 mi North 8.1 mph - N/A   Overcast
6:35 PM 46.9 °F - 40.3 °F 78% 30.00 in 10.0 mi North 8.1 mph - N/A   Overcast
6:55 PM 46.9 °F - 40.5 °F 78% 30.01 in 10.0 mi North 4.6 mph - N/A   Overcast
7:15 PM 45.9 °F 41.2 °F 39.7 °F 79% 30.02 in 10.0 mi North 9.2 mph - N/A   Overcast
7:35 PM 45.1 °F 42.8 °F 39.7 °F 81% 30.03 in 10.0 mi North 4.6 mph - N/A   Overcast
7:55 PM 45.1 °F 42.0 °F 39.7 °F 81% 30.04 in 10.0 mi North 5.8 mph - N/A   Overcast
8:15 PM 45.0 °F 43.5 °F 39.9 °F 82% 30.05 in 10.0 mi NNE 3.5 mph - N/A   Overcast
8:35 PM 45.0 °F 43.5 °F 39.2 °F 80% 30.04 in 10.0 mi NNE 3.5 mph - N/A   Overcast
8:55 PM 45.1 °F - 39.4 °F 80% 30.06 in 10.0 mi Calm Calm - N/A   Overcast
9:15 PM 45.0 °F - 39.4 °F 81% 30.08 in 10.0 mi Calm Calm - N/A   Overcast
9:35 PM 45.1 °F - 39.7 °F 81% 30.09 in 10.0 mi Calm Calm - N/A   Overcast
9:55 PM 44.6 °F - 39.6 °F 82% 30.10 in 10.0 mi Calm Calm - N/A   Overcast
10:15 PM 44.2 °F - 39.7 °F 84% 30.11 in 10.0 mi Calm Calm - N/A   Mostly Cloudy
10:35 PM 43.3 °F 41.7 °F 39.6 °F 87% 30.12 in 7.0 mi North 3.5 mph - N/A   Scattered Clouds
10:55 PM 43.5 °F - 40.1 °F 88% 30.12 in 7.0 mi Calm Calm - N/A   Mostly Cloudy
11:15 PM 43.7 °F 40.3 °F 39.6 °F 85% 30.12 in 10.0 mi North 5.8 mph - N/A   Overcast
11:35 PM 43.7 °F 42.1 °F 39.2 °F 84% 30.12 in 10.0 mi North 3.5 mph - N/A   Overcast
11:55 PM 43.3 °F - 39.2 °F 85% 30.12 in 10.0 mi Calm Calm - N/A   Overcast